Location: Unspecified
(50.4501°N, 30.5234°E)
Time: 08:50:18
(UTC+00:00)

ISS - Visible Passes

Search period start: 30 November 2022 00:00
Search period end: 10 December 2022 00:00
Orbit: 411 x 420 km, 51.6° (Epoch: 30 November)

Date Brightness Start Highest point End Pass type
(mag) Time Alt. Az. Time Alt. Az. Time Alt. Az.
30 Nov -3.9 16:05:44 10° WNW 16:09:04 82° SSW 16:09:05 82° S visible
01 Dec -3.9 15:16:59 10° WNW 15:20:20 82° N 15:22:27 21° E visible
01 Dec -1.2 16:53:50 10° W 16:55:20 22° W 16:55:20 22° W visible
02 Dec -3.8 14:28:12 10° W 14:31:32 73° N 14:34:52 10° E visible
02 Dec -3.1 16:05:00 10° W 16:08:13 48° SSW 16:08:46 43° S visible
03 Dec -3.5 15:16:10 10° WNW 15:19:29 67° SSW 15:22:19 13° ESE visible
03 Dec -1.0 16:53:28 10° W 16:55:13 17° SW 16:55:13 17° SW visible
04 Dec -3.7 14:27:20 10° WNW 14:30:41 86° SSW 14:34:01 10° ESE visible
04 Dec -1.7 16:04:18 10° W 16:07:07 25° SW 16:08:55 16° S visible
05 Dec -2.3 15:15:18 10° W 15:18:24 36° SSW 15:21:29 10° SE visible
06 Dec -0.7 16:04:15 10° WSW 16:05:44 12° SW 16:07:13 10° SSW visible
07 Dec -0.9 15:14:38 10° W 15:17:04 19° SW 15:19:28 10° S visible
